When you browse on this site, cookies collect data to enhance your experience and personalize the content and advertising you see.
Visit our Privacy Policy to learn more. By continuing to use the site, you agree to this use of cookies and data.
  • In Czech Republic
  • List of Countries
  • For 7 days
  • Water Temperature
  • Weather Map
  • Weather Widgets
  • user-avatar
    Login

    Hourly Weather Juticalpa

    Today, 19 February, Wednesday

    Time Temperature Precipitation Wind Pressure Humidity
    00:00 +20°C° 0 mm 0 mps 728 mmHg 96%
    01:00 +20°C° 0.1 mm 0 mps 728 mmHg 97%
    02:00 +20°C° 0.1 mm 0 mps 727 mmHg 97%
    03:00 +20°C° 0.1 mm 0 mps 727 mmHg 98%
    04:00 +19°C° 0 mm 0 mps 728 mmHg 98%
    05:00 +19°C° 0 mm 0 mps 728 mmHg 98%
    06:00 +19°C° 0 mm 0 mps 728 mmHg 97%
    07:00 +23°C° 0 mm 1 mps 729 mmHg 88%
    08:00 +25°C° 0 mm 1 mps 729 mmHg 79%
    09:00 +27°C° 0 mm 2 mps 730 mmHg 69%
    10:00 +29°C° 0 mm 2 mps 730 mmHg 60%
    11:00 +31°C° 0 mm 3 mps 729 mmHg 51%
    12:00 +34°C° 0 mm 3 mps 729 mmHg 41%
    13:00 +35°C° 0 mm 4 mps 728 mmHg 41%
    14:00 +35°C° 0 mm 4 mps 728 mmHg 41%
    15:00 +35°C° 0 mm 4 mps 727 mmHg 41%
    16:00 +33°C° 0 mm 3 mps 727 mmHg 49%
    17:00 +30°C° 0 mm 3 mps 727 mmHg 57%
    18:00 +28°C° 0 mm 2 mps 728 mmHg 65%
    19:00 +26°C° 0 mm 2 mps 728 mmHg 74%
    20:00 +25°C° 0 mm 1 mps 729 mmHg 83%
    21:00 +23°C° 0 mm 1 mps 729 mmHg 92%
    22:00 +23°C° 0 mm 1 mps 729 mmHg 93%
    23:00 +22°C° 0 mm 1 mps 729 mmHg 94%

    Tomorrow, 20 February, Thursday

    Time Temperature Precipitation Wind Pressure Humidity
    00:00 +20°C° 0 mm 0 mps 729 mmHg 96%
    01:00 +20°C° 0 mm 0 mps 728 mmHg 96%
    02:00 +19°C° 0 mm 0 mps 728 mmHg 96%
    03:00 +19°C° 0 mm 0 mps 728 mmHg 96%
    04:00 +19°C° 0.1 mm 0 mps 728 mmHg 96%
    05:00 +20°C° 0.1 mm 0 mps 728 mmHg 95%
    06:00 +20°C° 0.1 mm 0 mps 729 mmHg 94%
    07:00 +22°C° 0 mm 0 mps 729 mmHg 86%
    08:00 +24°C° 0 mm 0 mps 730 mmHg 77%
    09:00 +28°C° 0 mm 1 mps 730 mmHg 69%
    10:00 +29°C° 0.1 mm 1 mps 729 mmHg 64%
    11:00 +30°C° 0.1 mm 2 mps 729 mmHg 59%
    12:00 +31°C° 0.1 mm 2 mps 728 mmHg 55%
    13:00 +32°C° 0.1 mm 2 mps 728 mmHg 53%
    14:00 +32°C° 0.1 mm 2 mps 727 mmHg 51%
    15:00 +34°C° 0.1 mm 2 mps 727 mmHg 49%
    16:00 +31°C° 0.1 mm 2 mps 727 mmHg 57%
    17:00 +29°C° 0.1 mm 2 mps 727 mmHg 66%
    18:00 +27°C° 0.1 mm 1 mps 728 mmHg 74%
    19:00 +26°C° 0.1 mm 1 mps 728 mmHg 80%
    20:00 +25°C° 0.1 mm 1 mps 729 mmHg 86%
    21:00 +24°C° 0.1 mm 1 mps 729 mmHg 92%
    22:00 +24°C° 0.2 mm 1 mps 729 mmHg 92%
    23:00 +24°C° 0.2 mm 1 mps 729 mmHg 92%

    Day after tomorrow, 21 February, Friday

    Time Temperature Precipitation Wind Pressure Humidity
    00:00 +24°C° 0.2 mm 1 mps 729 mmHg 92%
    07:00 +21°C° 0 mm 0 mps 730 mmHg 89%
    08:00 +24°C° 0 mm 0 mps 730 mmHg 80%
    09:00 +26°C° 0 mm 0 mps 731 mmHg 72%
    10:00 +30°C° 0 mm 1 mps 731 mmHg 61%
    11:00 +32°C° 0 mm 2 mps 730 mmHg 49%
    12:00 +35°C° 0 mm 3 mps 730 mmHg 38%
    13:00 +35°C° 0 mm 3 mps 729 mmHg 38%
    14:00 +34°C° 0 mm 3 mps 728 mmHg 38%
    15:00 +34°C° 0 mm 4 mps 728 mmHg 38%
    16:00 +31°C° 0 mm 3 mps 728 mmHg 45%
    17:00 +29°C° 0 mm 3 mps 728 mmHg 52%
    18:00 +27°C° 0 mm 2 mps 729 mmHg 58%
    19:00 +26°C° 0 mm 2 mps 729 mmHg 65%
    20:00 +24°C° 0 mm 1 mps 730 mmHg 71%
    21:00 +23°C° 0 mm 1 mps 730 mmHg 78%
    22:00 +22°C° 0 mm 1 mps 730 mmHg 81%
    23:00 +22°C° 0 mm 1 mps 730 mmHg 83%

    22 February, Saturday

    Time Temperature Precipitation Wind Pressure Humidity
    00:00 +21°C° 0 mm 1 mps 730 mmHg 86%
    01:00 +21°C° 0 mm 1 mps 730 mmHg 88%
    02:00 +21°C° 0 mm 1 mps 729 mmHg 89%
    03:00 +19°C° 0 mm 0 mps 729 mmHg 91%
    04:00 +18°C° 0 mm 0 mps 729 mmHg 92%
    05:00 +18°C° 0 mm 0 mps 730 mmHg 93%
    06:00 +18°C° 0 mm 0 mps 730 mmHg 94%
    07:00 +21°C° 0 mm 0 mps 730 mmHg 84%
    08:00 +25°C° 0 mm 1 mps 731 mmHg 73%
    09:00 +28°C° 0 mm 1 mps 731 mmHg 63%
    10:00 +30°C° 0 mm 2 mps 731 mmHg 54%
    11:00 +32°C° 0 mm 2 mps 731 mmHg 46%
    12:00 +34°C° 0 mm 3 mps 730 mmHg 38%
    13:00 +34°C° 0 mm 3 mps 730 mmHg 38%
    14:00 +35°C° 0 mm 4 mps 729 mmHg 38%
    15:00 +35°C° 0 mm 4 mps 728 mmHg 38%
    16:00 +32°C° 0 mm 4 mps 729 mmHg 46%
    17:00 +29°C° 0 mm 4 mps 729 mmHg 54%
    18:00 +27°C° 0 mm 3 mps 729 mmHg 63%
    19:00 +26°C° 0 mm 2 mps 730 mmHg 68%
    20:00 +25°C° 0 mm 2 mps 730 mmHg 74%
    21:00 +24°C° 0 mm 1 mps 731 mmHg 80%
    22:00 +23°C° 0 mm 1 mps 731 mmHg 84%
    23:00 +23°C° 0 mm 1 mps 730 mmHg 87%

    23 February, Sunday

    Time Temperature Precipitation Wind Pressure Humidity
    00:00 +22°C° 0 mm 1 mps 730 mmHg 91%
    01:00 +21°C° 0 mm 1 mps 730 mmHg 93%
    02:00 +21°C° 0 mm 1 mps 729 mmHg 94%
    03:00 +20°C° 0 mm 1 mps 729 mmHg 95%
    04:00 +20°C° 0 mm 1 mps 729 mmHg 95%
    05:00 +20°C° 0 mm 1 mps 729 mmHg 95%
    06:00 +19°C° 0 mm 1 mps 730 mmHg 95%
    07:00 +22°C° 0 mm 1 mps 730 mmHg 83%
    08:00 +24°C° 0 mm 1 mps 731 mmHg 71%
    09:00 +27°C° 0 mm 1 mps 731 mmHg 59%
    10:00 +28°C° 0 mm 2 mps 730 mmHg 53%
    11:00 +30°C° 0 mm 2 mps 730 mmHg 47%
    12:00 +33°C° 0 mm 3 mps 729 mmHg 41%
    13:00 +33°C° 0 mm 3 mps 728 mmHg 40%
    14:00 +33°C° 0 mm 3 mps 728 mmHg 40%
    15:00 +34°C° 0 mm 3 mps 727 mmHg 39%
    16:00 +30°C° 0 mm 2 mps 727 mmHg 46%
    17:00 +28°C° 0 mm 2 mps 727 mmHg 52%
    18:00 +26°C° 0 mm 1 mps 727 mmHg 59%
    19:00 +24°C° 0 mm 1 mps 728 mmHg 67%
    20:00 +23°C° 0 mm 1 mps 728 mmHg 75%
    21:00 +21°C° 0 mm 1 mps 728 mmHg 83%
    22:00 +20°C° 0 mm 1 mps 728 mmHg 86%
    23:00 +20°C° 0 mm 1 mps 728 mmHg 90%

    24 February, Monday

    Time Temperature Precipitation Wind Pressure Humidity
    00:00 +17°C° 0 mm 0 mps 728 mmHg 93%
    01:00 +17°C° 0 mm 0 mps 728 mmHg 94%
    02:00 +16°C° 0 mm 0 mps 727 mmHg 95%
    03:00 +16°C° 0 mm 0 mps 727 mmHg 96%
    04:00 +15°C° 0 mm 0 mps 727 mmHg 96%
    05:00 +15°C° 0 mm 0 mps 727 mmHg 96%
    06:00 +15°C° 0 mm 0 mps 728 mmHg 96%
    07:00 +18°C° 0 mm 0 mps 728 mmHg 84%
    08:00 +21°C° 0 mm 0 mps 729 mmHg 73%
    09:00 +24°C° 0 mm 0 mps 729 mmHg 61%
    10:00 +28°C° 0 mm 1 mps 729 mmHg 50%
    11:00 +30°C° 0 mm 1 mps 728 mmHg 40%
    12:00 +32°C° 0 mm 1 mps 727 mmHg 29%
    13:00 +34°C° 0 mm 2 mps 726 mmHg 27%
    14:00 +34°C° 0 mm 2 mps 725 mmHg 25%
    15:00 +35°C° 0 mm 2 mps 725 mmHg 23%
    16:00 +31°C° 0 mm 1 mps 725 mmHg 28%
    17:00 +28°C° 0 mm 1 mps 725 mmHg 33%
    18:00 +26°C° 0 mm 1 mps 725 mmHg 38%
    19:00 +24°C° 0 mm 1 mps 725 mmHg 42%
    20:00 +23°C° 0 mm 1 mps 726 mmHg 46%
    21:00 +20°C° 0 mm 0 mps 726 mmHg 51%
    22:00 +19°C° 0 mm 0 mps 726 mmHg 56%
    23:00 +18°C° 0 mm 0 mps 726 mmHg 61%
    Show more